| time (UTC) | temp C | wind direction | speed KPH | gust KPH | rain 1hr cm | rain 24hr cm | rain mn cm | humidity % | barometer mb |
| 20260503010015 | 10 | 345 | 0.0 | 3.2 | 0.00 | 0.00 | 0.00 | 72 | 1014.0 |
| 20260503004504 | 11 | 268 | 0.0 | 3.2 | 0.00 | 0.00 | 0.00 | 69 | 1013.7 |
| 20260503003005 | 11 | 297 | 0.0 | 3.2 | 0.00 | 0.00 | 0.00 | 68 | 1013.5 |
| 20260503001509 | 12 | 297 | 0.0 | 1.6 | 0.00 | 0.00 | 0.00 | 64 | 1013.5 |
| 20260502233005 | 13 | 297 | 0.0 | 3.2 | 0.00 | 0.00 | 0.00 | 58 | 1012.9 |
| 20260502230014 | 14 | 297 | 0.0 | 1.6 | 0.00 | 0.00 | 0.00 | 55 | 1012.6 |
| 20260502224517 | 15 | 297 | 0.0 | 3.2 | 0.00 | 0.00 | 0.00 | 50 | 1012.4 |
| 20260502223022 | 16 | 297 | 1.6 | 3.2 | 0.00 | 0.00 | 0.00 | 43 | 1012.1 |
| 20260502221506 | 16 | 261 | 0.0 | 4.8 | 0.00 | 0.00 | 0.00 | 42 | 1011.9 |
| 20260502213018 | 17 | 261 | 0.0 | 4.8 | 0.00 | 0.00 | 0.00 | 43 | 1011.7 |
| 20260502211534 | 17 | 317 | 0.0 | 3.2 | 0.00 | 0.00 | 0.00 | 46 | 1011.7 |
| 20260502201524 | 15 | 28 | 1.6 | 4.8 | 0.00 | 0.00 | 0.00 | 48 | 1012.1 |
| 20260502200004 | 15 | 178 | 0.0 | 3.2 | 0.00 | 0.00 | 0.00 | 48 | 1012.4 |
| 20260502194504 | 15 | 26 | 0.0 | 4.8 | 0.00 | 0.00 | 0.00 | 48 | 1012.8 |
| 20260502193004 | 15 | 114 | 0.0 | 3.2 | 0.00 | 0.00 | 0.00 | 45 | 1012.9 |
| 20260502191504 | 14 | 81 | 1.6 | 6.4 | 0.00 | 0.00 | 0.00 | 46 | 1013.1 |
| 20260502183017 | 12 | 129 | 0.0 | 6.4 | 0.00 | 0.00 | 0.00 | 50 | 1013.5 |
| 20260502123023 | 11 | 38 | 0.0 | 3.2 | 0.00 | 0.00 | 0.00 | 76 | 1013.9 |
| 20260502121524 | 11 | 66 | 0.0 | 3.2 | 0.00 | 0.00 | 0.00 | 75 | 1014.1 |
| 20260502114506 | 10 | 39 | 1.6 | 4.8 | 0.00 | 0.00 | 0.00 | 77 | 1013.6 |
| 20260502113011 | 10 | 61 | 0.0 | 4.8 | 0.00 | 0.00 | 0.00 | 79 | 1013.8 |
| 20260502104534 | 10 | 264 | 0.0 | 3.2 | 0.00 | 0.00 | 0.00 | 79 | 1013.5 |
| 20260502103009 | 10 | 265 | 0.0 | 0.0 | 0.00 | 0.00 | 0.00 | 78 | 1013.8 |
| 20260502091514 | 10 | 336 | 0.0 | 3.2 | 0.00 | 0.00 | 0.00 | 82 | 1013.8 |
| 20260502071522 | 11 | 26 | 0.0 | 0.0 | 0.00 | 0.00 | 0.00 | 86 | 1012.6 |
| 20260502070014 | 11 | 26 | 0.0 | 0.0 | 0.00 | 0.00 | 0.00 | 85 | 1012.6 |
| 20260502064514 | 11 | 26 | 0.0 | 0.0 | 0.00 | 0.00 | 0.00 | 85 | 1012.8 |
| 20260502063026 | 11 | 26 | 0.0 | 3.2 | 0.00 | 0.00 | 0.00 | 84 | 1013.1 |
| 20260502061516 | 11 | 25 | 0.0 | 0.0 | 0.00 | 0.00 | 0.00 | 84 | 1013.2 |
| 20260502060021 | 11 | 25 | 0.0 | 0.0 | 0.00 | 0.00 | 0.00 | 83 | 1013.3 |
| 20260502054522 | 11 | 25 | 0.0 | 3.2 | 0.00 | 0.00 | 0.00 | 84 | 1013.3 |
| 20260502053026 | 11 | 26 | 0.0 | 3.2 | 0.00 | 0.00 | 0.00 | 84 | 1013.3 |
| 20260502051546 | 11 | 182 | 0.0 | 0.0 | 0.00 | 0.00 | 0.00 | 83 | 1012.9 |
| 20260502050012 | 11 | 182 | 0.0 | 0.0 | 0.00 | 0.00 | 0.00 | 83 | 1013.0 |
| 20260502044504 | 11 | 182 | 0.0 | 0.0 | 0.00 | 0.00 | 0.00 | 82 | 1013.1 |
| 20260502043007 | 11 | 182 | 0.0 | 0.0 | 0.00 | 0.00 | 0.00 | 81 | 1013.1 |
| 20260502041511 | 11 | 177 | 0.0 | 0.0 | 0.00 | 0.00 | 0.00 | 80 | 1013.1 |
| 20260502040014 | 11 | 177 | 0.0 | 3.2 | 0.00 | 0.00 | 0.00 | 80 | 1013.1 |
| 20260502034519 | 11 | 177 | 0.0 | 3.2 | 0.00 | 0.00 | 0.00 | 79 | 1013.2 |
| 20260502033004 | 12 | 177 | 0.0 | 3.2 | 0.00 | 0.00 | 0.00 | 79 | 1013.3 |
| 20260502031508 | 12 | 175 | 0.0 | 3.2 | 0.00 | 0.00 | 0.00 | 79 | 1013.5 |
| 20260502030014 | 12 | 284 | 0.0 | 3.2 | 0.00 | 0.00 | 0.00 | 78 | 1013.4 |
| 20260502024515 | 12 | 216 | 0.0 | 3.2 | 0.00 | 0.00 | 0.00 | 78 | 1013.6 |
| 20260502023016 | 12 | 274 | 0.0 | 8.0 | 0.00 | 0.00 | 0.00 | 78 | 1013.4 |
| 20260502021506 | 12 | 299 | 0.0 | 6.4 | 0.00 | 0.00 | 0.00 | 78 | 1013.4 |
| 20260502020010 | 12 | 213 | 0.0 | 4.8 | 0.00 | 0.00 | 0.00 | 77 | 1013.4 |
| 20260502014522 | 13 | 297 | 0.0 | 6.4 | 0.00 | 0.00 | 0.00 | 77 | 1013.4 |
| 20260502013011 | 13 | 160 | 0.0 | 4.8 | 0.00 | 0.00 | 0.00 | 75 | 1013.4 |